Погода в Исилькуле

Погода в Исилькуле : погода сейчас, прогноз погоды и архив. Всё, что Вы хотите узнать о погоде в Исилькуле!

Хотите узнать прогноз погоды в Исилькуле? Тогда Вам сюда: Погода в Исилькуле

Поиск расширенной информации на нашем сайте:

Полезная информация: Деньги в долг срочно дам деньги в долг.

Другие новости

Новости СМИ2

Главная страница сайта

Новости сайта

02.10.2013

Напоминаем, что на нашем новом сайте вы можете получить высокодетализированные прогнозы погоды по пунктам России, СНГ и мира (включающие важные для авиации метеовеличины, такие как направление и скорость ветра, видимость, явления погоды, количество и форма облачности, нижняя и верхняя граница облачности), а также ознакомиться с разнообразными материалами по авиационной метеорологии и подборкой полезных ссылок на эту тему.

Сайт Метеоцентр.Азия посвящён разработке технологий оптимизации авиаметеорологического обслуживания, включая проектирование и перспективное создание нескольких автоматизированных авиаметеорологических систем:
- система выпуска высокодетальных прогностических карт явлений погоды для нижнего воздушного пространства по России и ближнему зарубежью;
- система верификации прогнозов TAF (выпускаемых синоптиками официальных АМСГ РФ и ближнего зарубежья) и AUTOTAF (выпускаемых сайтом Метеоцентр.Азия) - выявление ошибок, онлайн-сопоставление с фактической погодой METAR, автоматическое внесение коррективов в прогнозы при резком отклонении фактической погоды от прогноза, подсчёт оправдываемости прогнозов по элементам и в целом;
- система обработки, анализа и отображения авиаметеорологической информации для применения провайдерами метеорологической информации.

Рекомендуем: Образец договор купли продажи сруба бани.

Погода в Исилькуле - сегодня

Время (UTC), дата Ветер
(°,м/с) 
Видим.   Явления Облачность Т
(°С)
Тd
(°С)
f(%) Тe
(°С)
Pmin
(гПа)
dP
(гПа)
Po
(мм)
O2
(г/м3)
Тmin Tmax R s Состояние
почвы
09 26.05.17 170 (Ю) 20000 м    ясно 
+16.9 -2.1 27 +18  1024  -0.8  757  287           
12 26.05.17 170 (Ю) 20000 м    1/0 верхняя 
[Ci fib]
+18.4 -2.1 25 +19  1022.6  -1.3  756  286           
15 26.05.17 180 (Ю) 20000 м    3/0 верхняя 
[Ci fib]
+16.4 -0.6 31 +17  1021.3  -1.3  755  287    +19       
18 26.05.17 160 (Ю) 10 км    ясно 
+11.6 +1.8 51 +12  1021  -0.6  754  291           
21 26.05.17 190 (Ю) 10 км    ясно 
+12.2 +0.8 46 +12  1019.8  -1.1  754  291           
00 27.05.17 190 (Ю) 20000 м    ясно 
+11 +2.2 55 +11  1019.2  -0.7  753  291           
03 27.05.17 190 (Ю) 20000 м    ясно 
+16.6 +3.2 41 +17  1017.8  -1.1  752  285  +10.5         
06 27.05.17 170 (Ю) 5{10}  20000 м    4/0 верхняя 
[Ci fib]
+21.9 +1.7 26 +22  1015.5  -2  751  280           
12 27.05.17 150 (ЮВ) 4{11}  20000 м    9/4 600 м кучево-дожд., средняя, верхняя 
[Cb calv|Ac As|Ci fib]
+23.8 +3.5 27 +24  1009  -3.5  746  276           
15 27.05.17 140 (ЮВ) 4{12}  20000 м  слаб. ливневой дождь  10/9 600 м кучево-дожд., верхняя 
[Cb calv|Ci fib]
+19.2 +9.7 54 +21  1006.5  -2.7  744  278    +23.8  0.3     
21 27.05.17 160 (Ю) 4{11}  10 км    8/8 600 м кучево-дожд. 
[Cb calv]
+18.3 +3.7 38 +19  1000.7  -2.9  740  279           
00 28.05.17 140 (ЮВ) 20000 м  в посл. час ливневой дождь  10/10 600 м кучево-дожд. 
[Cb calv]
+14.6 +8.5 67 +15  998.4  -2.5  738  281           
03 28.05.17 200 (Ю) 20000 м    8/0 средняя 
[Ac trans]
+18.8 +11.5 63 +23  998.1  -0.2  738  276  +14.5    0.9     
06 28.05.17 220 (ЮЗ) 20000 м    10/6 600 м кучево-дожд., средняя, верхняя 
[Cb calv|Ac trans|Ci fib]
+21.1 +10.8 52 +24  995.8  -2.1  736  273           
12 28.05.17 330 (СЗ) 4{12}  20000 м    9/9 600 м кучево-дожд. 
[Cb calv]
+20.6 +11.8 57 +25  996.1  736  274           
15 28.05.17 280 (З) 3{10}  20000 м  {гроза}  8/4 600 м кучево-дожд., верхняя 
[Cb calv|Ci fib]
+18.3 +11.1 63 +22  998.6  2.3  738  277    +23       
18 28.05.17 240 (ЮЗ) 10 км  {гроза}  6/4 600 м кучево-дожд., верхняя 
[Cb calv|Ci fib]
+16.3 +12 76 +21  999.9  1.2  739  279           
21 28.05.17 260 (З) 10 км    3/0 средняя 
[Ac trans]
+13.9 +11.1 83 +17  1001  0.9  740  281           
00 29.05.17 270 (З) 20000 м    6/3 600 м кучево-дожд., верхняя 
[Cb calv|Ci fib]
+12 +10.6 91 +15  1001.9  0.9  740  284           
03 29.05.17 340 (С) 20000 м    9/5 600 м кучево-дожд., средняя, верхняя 
[Cb calv|Ac trans|Ci sp]
+15.2 +12.1 82 +20  1002.1  0.3  741  280  +11.3         
06 29.05.17 070 (В) 20000 м    10/8 600 м кучево-дожд., средняя, верхняя 
[Cb calv|As trans|Ci sp]
+18.9 +13.5 71 +27  1001.2  -0.7  740  276           
09 29.05.17 270 (З) 20000 м  в посл. час гроза  10/8 600 м кучево-дожд., средняя, верхняя 
[Cb calv|As op|Ci sp]
+18 +14.1 78 +27  999.3  -1.9  739  276           
12 29.05.17 070 (В) 20000 м  {гроза, ливн. осадки}  9/8 600 м кучево-дожд., средняя 
[Cb calv|As op]
+17.3 +13.6 79 +25  997.4  -1.9  737  277           
15 29.05.17 320 (СЗ) 20000 м  в посл. час ливневой дождь  10/10 600 м кучево-дожд. 
[Cb calv]
+14.6 +13.3 92 +20  997.2  -0.4  737  279    +20.4     
18 29.05.17 330 (СЗ) 10 км  {ливн. осадки}  8/3 600 м кучево-дожд., средняя 
[Cb calv|Ac trans]
+13.1 +12.5 96 +18  996.1  -1.2  736  281           
Время (UTC), дата Ветер
(°,м/с) 
Видим.   Явления Облачность Т
(°С)
Тd
(°С)
f(%) Тe
(°С)
Pmin
(гПа)
dP
(гПа)
Po
(мм)
O2
(г/м3)
Тmin Tmax R s Состояние
почвы

Для получения пояснительной информации подведите курсор к названию столбца.

ПОГОДА в Исилькуле - архив

Всё, что Вы хотите узнать о погоде в Исилькуле - удобно и подробно!

Выберите нужную дату (начиная с 1 января 2015* года) и нажмите кнопку "Найти".
Будут отображены архивные сводки погоды по пункту Исилькуль, начиная с указанной даты.


Отображать данные в формате CSV (для использования в таблицах Excel)


Внимание! Наш архив погоды предназначен исключительно для личного некоммерческого использования в познавательных целях. Если Вам необходимы официальные справки о состоянии погоды (для производственных, юридических, коммерческих и т.п. целей), обращайтесь в органы Росгидромета.

*Примечание: данная дата относится к архиву по метеостанциям СССР (Россия, СНГ, Балтия).
Архив по метеостанциям Зарубежной Европы и Азии (кроме Китая) хранится 10 дней, по другим регионам земного шара (Китай, Африка, Америка, Австралия, Океания) - 1 день.

Исилькуль - район местоположения метеостанции


Название, широта, долгота, высота метеостанции:
Исилькуль 54.9°ш. 71.2°д. 125 м над ур. моря [Российская Федерация]

Дополнительная информация

В oтличие oт бoльшинства пoгoдных сайтoв мы публикуем пoдрoбную метеoинфoрмацию в детальнoм прoфессиoнальнoм фoрмате.

Характеристики температуры и влажнoсти вoздуха измеряются на высoте 2 м в тени вдали oт зданий и деревьев.
Скoрoсть ветра измеряется на высoте 10 м (на урoвне рoста челoвека скoрoсть ветра ниже в 1.5-2 раза). Если метеoстанция нахoдится в гoрoде или в лесу, тo скoрoсть ветра занижена на 2-4 м/с пo сравнению с oткрытым местoм. Скoрoсть ветра над акватoриями крупных рек и oзёр, а также на вершинах хoлмoв на 2-5 м/с выше, чем в oбычных услoвиях.
Атмoсфернoе давление в разных тoчках местнoсти мoжет значительнo oтличаться oт давления на метеoстанции, в зависимoсти oт услoвий рельефа (при пoдъёме на 10 м давление пoнижается примернo на 1 мм рт.ст.).